Location: Altleiningen
(49.5078°N, 8.0741°E)
Time: 11:06:19
(UTC+00:00)

Meteor 1-20 Rocket - Pass Details

Date: 03 March 2021
Orbit: 820 x 891 km, 81.2° (Epoch: 13 April)

Event Time Altitude Azimuth Distance (km) Brightness Sun altitude
Rises 18:07:55 0° 192° (SSW) 3,340 7.5 -9.6°
Reaches altitude 10° 18:10:17 10° 194° (SSW) 2,411 6.7 -9.9°
Maximum altitude 18:15:45 83° 282° (WNW) 837 4.3 -10.8°
Drops below altitude 10° 18:21:18 10° 11° (N) 2,447 6.5 -11.7°
Sets 18:23:43 0° 12° (NNE) 3,394 7.3 -12.1°
